| time (UTC) | temp C | wind direction | speed KPH | gust KPH | rain 1hr cm | rain 24hr cm | rain mn cm | humidity % | barometer mb |
| 20260831080203 | 25 | 68 | 0.0 | 1.6 | 0.00 | 1.24 | 0.89 | 86 | 1015.3 |
| 20260831075202 | 25 | 68 | 0.0 | 1.6 | 0.00 | 1.24 | 0.89 | 86 | 1015.2 |
| 20260831074210 | 25 | 68 | 0.0 | 1.6 | 0.00 | 1.24 | 0.89 | 86 | 1015.1 |
| 20260831073137 | 25 | 68 | 0.0 | 0.0 | 0.00 | 1.24 | 0.89 | 86 | 1015.2 |
| 20260831072155 | 25 | 63 | 1.6 | 4.8 | 0.00 | 1.24 | 0.89 | 86 | 1015.4 |
| 20260831071121 | 25 | 36 | 3.2 | 12.9 | 0.10 | 1.24 | 0.89 | 86 | 1015.4 |
| 20260831064951 | 26 | 69 | 1.6 | 12.9 | 0.79 | 1.14 | 0.79 | 87 | 1015.9 |
| 20260831063933 | 26 | 121 | 6.4 | 22.5 | 0.28 | 1.04 | 0.66 | 86 | 1015.9 |
| 20260831062918 | 27 | 119 | 11.3 | 22.5 | 0.28 | 0.91 | 0.58 | 86 | 1015.9 |
| 20260831061844 | 27 | 140 | 12.9 | 20.9 | 0.00 | 0.48 | 0.13 | 83 | 1016.1 |
| 20260831060816 | 27 | 119 | 4.8 | 9.7 | 0.00 | 0.48 | 0.13 | 84 | 1016.0 |
| 20260831055823 | 27 | 162 | 3.2 | 16.1 | 0.10 | 0.48 | 0.13 | 85 | 1015.9 |
| 20260831054800 | 27 | 142 | 3.2 | 16.1 | 0.41 | 0.48 | 0.13 | 85 | 1016.0 |
| 20260831051517 | 27 | 67 | 0.0 | 0.0 | 0.00 | 0.36 | 0.00 | 84 | 1016.3 |
| 20260831050441 | 27 | 67 | 0.0 | 0.0 | 0.00 | 0.36 | 0.00 | 84 | 1016.3 |
| 20260831045457 | 27 | 27 | 0.0 | 3.2 | 0.00 | 0.36 | 0.00 | 84 | 1016.5 |
| 20260831044425 | 27 | 53 | 0.0 | 0.0 | 0.00 | 0.36 | 0.00 | 84 | 1016.6 |
| 20260831043443 | 27 | 53 | 0.0 | 0.0 | 0.00 | 0.36 | 0.00 | 84 | 1016.5 |
| 20260831040212 | 27 | 53 | 0.0 | 0.0 | 0.00 | 0.36 | 0.00 | 84 | 1016.8 |
| 20260831034041 | 27 | 53 | 0.0 | 0.0 | 0.00 | 0.36 | 0.36 | 83 | 1016.9 |
| 20260831033015 | 27 | 53 | 0.0 | 0.0 | 0.00 | 0.36 | 0.36 | 83 | 1016.9 |
| 20260831032024 | 27 | 53 | 0.0 | 0.0 | 0.00 | 0.36 | 0.36 | 83 | 1016.8 |
| 20260831030955 | 27 | 42 | 0.0 | 0.0 | 0.00 | 0.36 | 0.36 | 83 | 1016.9 |
| 20260831025946 | 27 | 73 | 1.6 | 3.2 | 0.00 | 0.36 | 0.36 | 82 | 1016.9 |
| 20260831023748 | 27 | 57 | 0.0 | 0.0 | 0.00 | 0.36 | 0.36 | 82 | 1016.7 |
| 20260831022808 | 27 | 71 | 0.0 | 0.0 | 0.00 | 0.36 | 0.36 | 82 | 1016.8 |
| 20260831021826 | 27 | 76 | 0.0 | 0.0 | 0.00 | 0.36 | 0.36 | 82 | 1016.7 |
| 20260831020800 | 27 | 67 | 1.6 | 4.8 | 0.00 | 0.36 | 0.36 | 82 | 1016.7 |
| 20260831015725 | 27 | 69 | 1.6 | 6.4 | 0.00 | 0.36 | 0.36 | 81 | 1016.9 |
| 20260831014712 | 27 | 75 | 3.2 | 8.0 | 0.00 | 0.36 | 0.36 | 81 | 1016.8 |
| 20260831013636 | 27 | 63 | 3.2 | 11.3 | 0.00 | 0.36 | 0.36 | 81 | 1016.8 |
| 20260831012650 | 27 | 71 | 3.2 | 11.3 | 0.00 | 0.36 | 0.36 | 80 | 1016.9 |
| 20260831011618 | 27 | 21 | 3.2 | 11.3 | 0.00 | 0.36 | 0.36 | 81 | 1016.9 |
| 20260831010638 | 27 | 40 | 3.2 | 11.3 | 0.00 | 0.36 | 0.36 | 81 | 1017.0 |
| 20260831005640 | 27 | 61 | 3.2 | 8.0 | 0.00 | 0.36 | 0.36 | 81 | 1016.9 |
| 20260831003511 | 27 | 49 | 3.2 | 9.7 | 0.00 | 0.36 | 0.36 | 82 | 1016.8 |
| 20260831002520 | 27 | 48 | 3.2 | 9.7 | 0.00 | 0.36 | 0.36 | 82 | 1016.7 |
| 20260831001504 | 27 | 40 | 3.2 | 6.4 | 0.00 | 0.36 | 0.36 | 81 | 1016.6 |
| 20260831000442 | 27 | 24 | 3.2 | 6.4 | 0.00 | 0.36 | 0.36 | 80 | 1016.6 |
| 20260830235443 | 27 | 35 | 1.6 | 6.4 | 0.00 | 0.36 | 0.36 | 80 | 1016.6 |
| 20260830234440 | 28 | 16 | 1.6 | 6.4 | 0.00 | 0.36 | 0.36 | 79 | 1016.5 |
| 20260830233429 | 28 | 35 | 3.2 | 6.4 | 0.00 | 0.36 | 0.36 | 78 | 1016.5 |
| 20260830232411 | 28 | 56 | 3.2 | 6.4 | 0.00 | 0.36 | 0.36 | 77 | 1016.3 |
| 20260830225132 | 28 | 54 | 1.6 | 4.8 | 0.00 | 0.36 | 0.36 | 77 | 1015.9 |
| 20260830224134 | 28 | 115 | 3.2 | 9.7 | 0.00 | 0.41 | 0.36 | 77 | 1015.9 |
| 20260830223101 | 28 | 81 | 3.2 | 9.7 | 0.00 | 0.41 | 0.36 | 77 | 1015.9 |
| 20260830222054 | 28 | 104 | 3.2 | 9.7 | 0.00 | 0.41 | 0.36 | 77 | 1015.9 |
| 20260830215907 | 28 | 98 | 0.0 | 4.8 | 0.00 | 0.41 | 0.36 | 74 | 1015.7 |
| 20260830213740 | 28 | 78 | 1.6 | 4.8 | 0.00 | 0.41 | 0.36 | 76 | 1015.7 |
| 20260830210444 | 28 | 36 | 3.2 | 9.7 | 0.00 | 0.41 | 0.36 | 77 | 1015.7 |
| 20260830205454 | 28 | 65 | 4.8 | 9.7 | 0.00 | 0.41 | 0.36 | 77 | 1015.8 |
| 20260830204434 | 28 | 34 | 3.2 | 8.0 | 0.00 | 0.41 | 0.36 | 76 | 1015.8 |
| 20260830201147 | 28 | 58 | 1.6 | 8.0 | 0.00 | 0.89 | 0.36 | 78 | 1016.3 |
| 20260830200110 | 28 | 49 | 1.6 | 8.0 | 0.00 | 0.89 | 0.36 | 79 | 1016.4 |
| 20260830195128 | 27 | 246 | 0.0 | 3.2 | 0.00 | 0.89 | 0.36 | 79 | 1016.4 |
| 20260830194057 | 27 | 192 | 0.0 | 0.0 | 0.00 | 0.89 | 0.36 | 80 | 1016.5 |
| 20260830193109 | 27 | 260 | 0.0 | 1.6 | 0.00 | 0.89 | 0.36 | 80 | 1016.5 |
| 20260830192131 | 27 | 260 | 1.6 | 3.2 | 0.00 | 0.89 | 0.36 | 80 | 1016.6 |
| 20260830191120 | 26 | 265 | 0.0 | 1.6 | 0.00 | 0.89 | 0.36 | 82 | 1016.3 |
| 20260830190134 | 26 | 329 | 0.0 | 0.0 | 0.00 | 0.89 | 0.36 | 84 | 1016.4 |
| 20260830184004 | 25 | 152 | 0.0 | 1.6 | 0.00 | 0.89 | 0.36 | 86 | 1016.6 |
| 20260830183005 | 25 | 49 | 1.6 | 8.0 | 0.15 | 0.89 | 0.36 | 87 | 1016.8 |
| 20260830180850 | 25 | 103 | 3.2 | 11.3 | 0.25 | 0.84 | 0.33 | 87 | 1017.4 |
| 20260830175851 | 25 | 102 | 4.8 | 16.1 | 0.23 | 0.81 | 0.28 | 87 | 1017.7 |
| 20260830174835 | 25 | 137 | 6.4 | 19.3 | 0.33 | 0.79 | 0.25 | 88 | 1017.9 |
| 20260830173840 | 25 | 128 | 9.7 | 19.3 | 0.41 | 0.74 | 0.20 | 87 | 1018.0 |
| 20260830172857 | 25 | 127 | 11.3 | 19.3 | 0.15 | 0.69 | 0.15 | 88 | 1018.2 |
| 20260830171904 | 25 | 144 | 6.4 | 12.9 | 0.30 | 0.66 | 0.13 | 88 | 1018.2 |
| 20260830170836 | 25 | 164 | 8.0 | 14.5 | 0.10 | 0.61 | 0.08 | 87 | 1018.4 |
| 20260830165840 | 25 | 142 | 9.7 | 17.7 | 0.18 | 0.58 | 0.05 | 87 | 1018.6 |
| 20260830164815 | 25 | 152 | 14.5 | 24.1 | 0.00 | 0.56 | 0.03 | 86 | 1018.5 |
| 20260830163800 | 25 | 152 | 14.5 | 24.1 | 0.00 | 0.53 | 0.00 | 85 | 1018.8 |
| 20260830162820 | 25 | 113 | 14.5 | 30.6 | 0.00 | 0.53 | 0.00 | 84 | 1019.1 |
| 20260830161840 | 26 | 165 | 17.7 | 37.0 | 0.00 | 0.53 | 0.00 | 83 | 1019.1 |
| 20260830155643 | 29 | 155 | 8.0 | 19.3 | 0.00 | 0.53 | 0.00 | 77 | 1018.2 |
| 20260830154644 | 29 | 82 | 6.4 | 16.1 | 0.00 | 0.53 | 0.00 | 77 | 1018.0 |
| 20260830153646 | 29 | 92 | 8.0 | 17.7 | 0.00 | 0.53 | 0.00 | 77 | 1018.0 |
| 20260830152616 | 30 | 94 | 8.0 | 17.7 | 0.00 | 0.53 | 0.00 | 78 | 1017.9 |
| 20260830151635 | 31 | 80 | 6.4 | 16.1 | 0.00 | 0.53 | 0.00 | 77 | 1017.9 |
| 20260830150624 | 31 | 57 | 6.4 | 14.5 | 0.00 | 0.53 | 0.00 | 74 | 1017.9 |
| 20260830145603 | 31 | 110 | 3.2 | 9.7 | 0.00 | 0.53 | 0.00 | 74 | 1017.9 |
| 20260830144603 | 30 | 49 | 1.6 | 6.4 | 0.00 | 0.53 | 0.00 | 74 | 1017.8 |
| 20260830143613 | 30 | 136 | 3.2 | 9.7 | 0.00 | 0.53 | 0.00 | 73 | 1017.9 |
| 20260830142609 | 31 | 106 | 3.2 | 9.7 | 0.00 | 0.53 | 0.00 | 73 | 1018.0 |
| 20260830141541 | 30 | 77 | 1.6 | 8.0 | 0.00 | 0.53 | 0.00 | 75 | 1018.0 |
| 20260830140552 | 30 | 213 | 0.0 | 3.2 | 0.00 | 0.53 | 0.00 | 76 | 1018.2 |
| 20260830135519 | 30 | 212 | 0.0 | 1.6 | 0.00 | 0.53 | 0.00 | 77 | 1018.1 |
| 20260830134505 | 29 | 191 | 3.2 | 6.4 | 0.00 | 0.53 | 0.00 | 77 | 1018.0 |
| 20260830133519 | 30 | 196 | 1.6 | 6.4 | 0.00 | 0.53 | 0.00 | 77 | 1018.0 |
| 20260830132541 | 30 | 104 | 1.6 | 4.8 | 0.00 | 0.53 | 0.00 | 77 | 1017.9 |
| 20260830131532 | 29 | 78 | 1.6 | 4.8 | 0.00 | 0.53 | 0.00 | 78 | 1017.8 |
| 20260830130516 | 29 | 134 | 0.0 | 3.2 | 0.00 | 0.53 | 0.00 | 79 | 1017.7 |
| 20260830125518 | 28 | 114 | 1.6 | 4.8 | 0.00 | 0.53 | 0.00 | 82 | 1017.6 |
| 20260830124511 | 28 | 92 | 1.6 | 4.8 | 0.00 | 0.53 | 0.00 | 82 | 1017.5 |
| 20260830123527 | 28 | 110 | 0.0 | 4.8 | 0.00 | 0.53 | 0.00 | 83 | 1017.4 |
| 20260830121353 | 28 | 88 | 1.6 | 4.8 | 0.00 | 0.53 | 0.00 | 83 | 1017.1 |
| 20260830120331 | 28 | 109 | 1.6 | 4.8 | 0.00 | 0.53 | 0.00 | 84 | 1017.1 |
| 20260830114120 | 28 | 114 | 0.0 | 3.2 | 0.00 | 0.53 | 0.00 | 84 | 1016.8 |
| 20260830113130 | 28 | 115 | 0.0 | 0.0 | 0.00 | 0.53 | 0.00 | 84 | 1016.6 |
| 20260830110929 | 28 | 110 | 1.6 | 4.8 | 0.00 | 0.53 | 0.00 | 83 | 1016.3 |
| 20260830105941 | 28 | 113 | 1.6 | 4.8 | 0.00 | 0.58 | 0.00 | 83 | 1016.3 |
| 20260830104911 | 28 | 113 | 1.6 | 8.0 | 0.00 | 0.64 | 0.00 | 83 | 1016.1 |
| 20260830103843 | 28 | 91 | 3.2 | 14.5 | 0.00 | 0.64 | 0.00 | 82 | 1016.0 |
| 20260830102851 | 28 | 98 | 6.4 | 14.5 | 0.00 | 0.64 | 0.00 | 82 | 1015.8 |
| 20260830101831 | 28 | 107 | 3.2 | 11.3 | 0.00 | 0.64 | 0.00 | 83 | 1015.6 |
| 20260830100754 | 28 | 84 | 1.6 | 11.3 | 0.00 | 0.64 | 0.00 | 84 | 1015.5 |
| 20260830095735 | 28 | 71 | 0.0 | 8.0 | 0.00 | 0.64 | 0.00 | 84 | 1015.6 |
| 20260830094724 | 28 | 102 | 3.2 | 8.0 | 0.00 | 0.64 | 0.00 | 84 | 1015.6 |
| 20260830093733 | 28 | 98 | 1.6 | 4.8 | 0.00 | 0.64 | 0.00 | 84 | 1015.5 |
| 20260830092656 | 28 | 109 | 3.2 | 11.3 | 0.00 | 0.64 | 0.00 | 84 | 1015.4 |
| 20260830091635 | 28 | 113 | 4.8 | 11.3 | 0.00 | 0.64 | 0.00 | 84 | 1015.5 |
| 20260830090631 | 28 | 117 | 3.2 | 9.7 | 0.00 | 0.64 | 0.00 | 84 | 1015.6 |
| 20260830085617 | 28 | 128 | 3.2 | 8.0 | 0.00 | 0.64 | 0.00 | 84 | 1015.6 |
| 20260830084607 | 28 | 109 | 3.2 | 9.7 | 0.00 | 0.64 | 0.00 | 84 | 1015.6 |
| 20260830083613 | 28 | 103 | 3.2 | 11.3 | 0.00 | 0.64 | 0.00 | 83 | 1015.6 |
| 20260830082556 | 28 | 92 | 4.8 | 14.5 | 0.00 | 0.64 | 0.00 | 83 | 1015.8 |
| 20260830081519 | 28 | 113 | 6.4 | 14.5 | 0.00 | 0.64 | 0.00 | 83 | 1015.8 |
| 20260830080519 | 28 | 78 | 4.8 | 12.9 | 0.00 | 0.64 | 0.00 | 83 | 1016.0 |